Location: Boiro
(42.6475°N, 8.8834°W)
Time: 02:23:53
(UTC+02:00)

LINGQIAO VIDEO B - Pass Details

Date: 06 July 2022
Orbit: 636 x 662 km, 97.7° (Epoch: 14 August)

Event Time Altitude Azimuth Distance (km) Brightness Sun altitude
Rises 23:38:29 0° 199° (SSW) 2,969 ? -12.4°
Reaches altitude 10° 23:41:04 10° 214° (SSW) 2,067 ? -12.8°
Maximum altitude 23:44:40 23° 266° (W) 1,398 ? -13.2°
Drops below altitude 10° 23:48:18 10° 319° (NW) 2,088 ? -13.6°
Sets 23:50:56 0° 334° (NNW) 3,007 ? -14.0°
